Time,TemperatureF,DewpointF,PressureIn,WindDirection,WindDirectionDegrees,WindSpeedMPH,WindSpeedGustMPH,Humidity,HourlyPrecipIn,Conditions,Clouds,dailyrainin,SoftwareType,DateUTC
2013-08-23 00:02:00,82.7,74.0,29.96,SSE,150,5.8,5.8,75,0.00,CLR,,0.00,WeatherDisplay:10.37,2013-08-23 05:02:00,
2013-08-23 00:07:00,82.5,73.8,29.96,SE,124,4.6,4.6,75,0.00,CLR,,0.00,WeatherDisplay:10.37,2013-08-23 05:07:00,
2013-08-23 00:12:00,82.4,74.1,29.96,SE,125,5.8,5.8,76,0.00,CLR,,0.00,WeatherDisplay:10.37,2013-08-23 05:12:00,
2013-08-23 00:17:00,82.1,73.8,29.96,SE,128,4.0,4.0,76,0.00,CLR,,0.00,WeatherDisplay:10.37,2013-08-23 05:17:00,
2013-08-23 00:22:00,82.0,74.1,29.96,ESE,114,5.8,5.8,77,0.00,CLR,,0.00,WeatherDisplay:10.37,2013-08-23 05:22:00,
2013-08-23 00:27:00,81.8,73.9,29.96,SE,128,4.0,4.0,77,0.00,CLR,,0.00,WeatherDisplay:10.37,2013-08-23 05:27:00,
2013-08-23 00:32:00,81.7,73.8,29.96,SE,127,3.5,3.5,77,0.00,CLR,,0.00,WeatherDisplay:10.37,2013-08-23 05:32:00,
2013-08-23 00:37:00,81.6,73.7,29.96,SSE,162,6.9,6.9,77,0.00,CLR,,0.00,WeatherDisplay:10.37,2013-08-23 05:37:00,
2013-08-23 00:42:00,81.4,73.9,29.96,SE,146,6.9,6.9,78,0.00,CLR,,0.00,WeatherDisplay:10.37,2013-08-23 05:42:00,
2013-08-23 00:47:00,81.3,73.8,29.96,SE,132,4.6,4.6,78,0.00,CLR,,0.00,WeatherDisplay:10.37,2013-08-23 05:47:00,
2013-08-23 00:52:00,81.2,73.7,29.96,SE,146,8.1,8.1,78,0.00,CLR,,0.00,WeatherDisplay:10.37,2013-08-23 05:52:00,
2013-08-23 00:57:00,81.1,73.6,29.96,SE,143,5.0,5.0,78,0.00,CLR,,0.00,WeatherDisplay:10.37,2013-08-23 05:57:00,
2013-08-23 01:02:00,80.9,73.4,29.96,SSE,156,4.6,4.6,78,0.00,CLR,,0.00,WeatherDisplay:10.37,2013-08-23 06:02:00,
2013-08-23 01:07:00,80.8,73.3,29.96,SSE,162,5.0,5.0,78,0.00,CLR,,0.00,WeatherDisplay:10.37,2013-08-23 06:07:00,
2013-08-23 01:12:00,80.7,73.6,29.96,SSE,165,5.8,5.8,79,0.00,CLR,,0.00,WeatherDisplay:10.37,2013-08-23 06:12:00,
2013-08-23 01:17:00,80.5,73.4,29.96,South,191,3.5,3.5,79,0.00,CLR,,0.00,WeatherDisplay:10.37,2013-08-23 06:17:00,
2013-08-23 01:22:00,80.3,73.6,29.96,SSE,153,2.3,2.3,80,0.00,CLR,,0.00,WeatherDisplay:10.37,2013-08-23 06:22:00,
2013-08-23 01:27:00,80.2,73.5,29.96,SE,143,3.5,3.5,80,0.00,CLR,,0.00,WeatherDisplay:10.37,2013-08-23 06:27:00,
2013-08-23 01:32:00,80.1,73.7,29.95,SSE,156,3.5,3.5,81,0.00,CLR,,0.00,WeatherDisplay:10.37,2013-08-23 06:32:00,
2013-08-23 01:37:00,80.0,73.6,29.95,SE,141,3.5,3.5,81,0.00,CLR,,0.00,WeatherDisplay:10.37,2013-08-23 06:37:00,
2013-08-23 01:42:00,79.9,73.5,29.95,SE,131,2.3,2.3,81,0.00,CLR,,0.00,WeatherDisplay:10.37,2013-08-23 06:42:00,
2013-08-23 01:47:00,79.7,73.7,29.95,ESE,122,3.5,3.5,82,0.00,CLR,,0.00,WeatherDisplay:10.37,2013-08-23 06:47:00,
2013-08-23 01:52:00,79.6,73.6,29.95,SSE,150,1.1,1.1,82,0.00,CLR,,0.00,WeatherDisplay:10.37,2013-08-23 06:52:00,
2013-08-23 01:57:00,79.4,73.4,29.95,SSE,156,0.0,0.0,82,0.00,CLR,,0.00,WeatherDisplay:10.37,2013-08-23 06:57:00,
2013-08-23 02:02:00,79.2,73.6,29.95,SE,140,0.0,0.0,83,0.00,CLR,,0.00,WeatherDisplay:10.37,2013-08-23 07:02:00,
2013-08-23 02:07:00,79.1,73.5,29.95,SE,134,0.0,0.0,83,0.00,CLR,,0.00,WeatherDisplay:10.37,2013-08-23 07:07:00,
2013-08-23 02:12:00,79.0,73.7,29.95,SSE,150,0.0,0.0,84,0.00,CLR,,0.00,WeatherDisplay:10.37,2013-08-23 07:12:00,
2013-08-23 02:17:00,78.8,73.6,29.95,SSE,150,0.0,0.0,84,0.00,CLR,,0.00,WeatherDisplay:10.37,2013-08-23 07:17:00,
2013-08-23 02:22:00,78.7,73.5,29.95,SE,135,0.0,0.0,84,0.00,CLR,,0.00,WeatherDisplay:10.37,2013-08-23 07:22:00,
2013-08-23 02:27:00,78.7,73.8,29.95,SSE,156,0.0,0.0,85,0.00,CLR,,0.00,WeatherDisplay:10.37,2013-08-23 07:27:00,
2013-08-23 02:32:00,78.6,73.7,29.95,SSE,157,0.0,0.0,85,0.00,CLR,,0.00,WeatherDisplay:10.37,2013-08-23 07:32:00,
2013-08-23 02:37:00,78.5,73.6,29.95,SSE,153,0.0,0.0,85,0.00,CLR,,0.00,WeatherDisplay:10.37,2013-08-23 07:37:00,
2013-08-23 02:42:00,78.4,73.5,29.95,SSE,154,0.0,0.0,85,0.00,CLR,,0.00,WeatherDisplay:10.37,2013-08-23 07:42:00,
2013-08-23 02:47:00,78.3,73.4,29.95,SSE,153,0.0,0.0,85,0.00,CLR,,0.00,WeatherDisplay:10.37,2013-08-23 07:47:00,
2013-08-23 02:52:00,78.2,73.7,29.95,ESE,123,0.0,0.0,86,0.00,CLR,,0.00,WeatherDisplay:10.37,2013-08-23 07:52:00,
2013-08-23 02:57:00,78.1,73.6,29.95,ESE,106,0.0,0.0,86,0.00,CLR,,0.00,WeatherDisplay:10.37,2013-08-23 07:57:00,
2013-08-23 03:02:00,78.0,73.5,29.95,ESE,112,0.0,0.0,86,0.00,CLR,,0.00,WeatherDisplay:10.37,2013-08-23 08:02:00,
2013-08-23 03:07:00,77.9,73.4,29.95,ESE,111,0.0,0.0,86,0.00,CLR,,0.00,WeatherDisplay:10.37,2013-08-23 08:07:00,
2013-08-23 03:12:00,77.8,73.6,29.95,East,95,0.0,0.0,87,0.00,CLR,,0.00,WeatherDisplay:10.37,2013-08-23 08:12:00,
2013-08-23 03:17:00,77.6,73.4,29.95,East,94,0.0,0.0,87,0.00,CLR,,0.00,WeatherDisplay:10.37,2013-08-23 08:17:00,
2013-08-23 03:22:00,77.5,73.3,29.95,East,95,0.0,0.0,87,0.00,CLR,,0.00,WeatherDisplay:10.37,2013-08-23 08:22:00,
2013-08-23 03:27:00,77.4,73.2,29.95,East,94,0.0,0.0,87,0.00,CLR,,0.00,WeatherDisplay:10.37,2013-08-23 08:27:00,
2013-08-23 03:32:00,77.2,73.0,29.95,East,94,0.0,0.0,87,0.00,CLR,,0.00,WeatherDisplay:10.37,2013-08-23 08:32:00,
2013-08-23 03:37:00,77.0,73.2,29.94,East,95,0.0,0.0,88,0.00,CLR,,0.00,WeatherDisplay:10.37,2013-08-23 08:37:00,
2013-08-23 03:42:00,76.8,73.0,29.95,East,94,0.0,0.0,88,0.00,CLR,,0.00,WeatherDisplay:10.37,2013-08-23 08:42:00,
2013-08-23 03:47:00,76.6,73.1,29.95,East,94,0.0,0.0,89,0.00,CLR,,0.00,WeatherDisplay:10.37,2013-08-23 08:47:00,
2013-08-23 03:52:00,76.4,72.9,29.95,East,95,0.0,0.0,89,0.00,CLR,,0.00,WeatherDisplay:10.37,2013-08-23 08:52:00,
2013-08-23 03:57:00,76.5,73.3,29.95,East,95,0.0,0.0,90,0.00,CLR,,0.00,WeatherDisplay:10.37,2013-08-23 08:57:00,
2013-08-23 04:02:00,76.6,73.4,29.94,East,94,0.0,0.0,90,0.00,CLR,,0.00,WeatherDisplay:10.37,2013-08-23 09:02:00,
2013-08-23 04:07:00,76.8,73.3,29.94,WNW,293,0.0,0.0,89,0.00,CLR,,0.00,WeatherDisplay:10.37,2013-08-23 09:07:00,
2013-08-23 04:12:00,76.9,73.4,29.94,WNW,292,0.0,0.0,89,0.00,CLR,,0.00,WeatherDisplay:10.37,2013-08-23 09:12:00,
2013-08-23 04:17:00,76.9,73.4,29.94,WNW,294,0.0,0.0,89,0.00,CLR,,0.00,WeatherDisplay:10.37,2013-08-23 09:17:00,
2013-08-23 04:22:00,76.8,73.3,29.94,WNW,293,0.0,0.0,89,0.00,CLR,,0.00,WeatherDisplay:10.37,2013-08-23 09:22:00,
2013-08-23 04:27:00,76.7,73.2,29.94,WNW,293,0.0,0.0,89,0.00,CLR,,0.00,WeatherDisplay:10.37,2013-08-23 09:27:00,
2013-08-23 04:32:00,76.5,73.0,29.94,WNW,294,0.0,0.0,89,0.00,CLR,,0.00,WeatherDisplay:10.37,2013-08-23 09:32:00,
2013-08-23 04:37:00,76.3,72.8,29.94,WNW,294,0.0,0.0,89,0.00,CLR,,0.00,WeatherDisplay:10.37,2013-08-23 09:37:00,
2013-08-23 04:42:00,76.2,73.1,29.94,WNW,294,0.0,0.0,90,0.00,CLR,,0.00,WeatherDisplay:10.37,2013-08-23 09:42:00,
2013-08-23 04:47:00,76.0,72.9,29.94,WNW,293,0.0,0.0,90,0.00,CLR,,0.00,WeatherDisplay:10.37,2013-08-23 09:47:00,
2013-08-23 04:52:00,75.9,72.8,29.94,WNW,294,0.0,0.0,90,0.00,CLR,,0.00,WeatherDisplay:10.37,2013-08-23 09:52:00,
2013-08-23 04:57:00,75.9,72.8,29.94,WNW,294,0.0,0.0,90,0.00,CLR,,0.00,WeatherDisplay:10.37,2013-08-23 09:57:00,
2013-08-23 05:02:00,75.8,73.0,29.95,WNW,294,0.0,0.0,91,0.00,CLR,,0.00,WeatherDisplay:10.37,2013-08-23 10:02:00,
2013-08-23 05:07:00,76.0,72.9,29.95,WNW,298,0.0,0.0,90,0.00,CLR,,0.00,WeatherDisplay:10.37,2013-08-23 10:07:00,
2013-08-23 05:12:00,75.9,72.8,29.95,North,352,0.0,0.0,90,0.00,CLR,,0.00,WeatherDisplay:10.37,2013-08-23 10:12:00,
2013-08-23 05:17:00,76.0,72.9,29.95,NNE,25,0.0,0.0,90,0.00,CLR,,0.00,WeatherDisplay:10.37,2013-08-23 10:17:00,
2013-08-23 05:22:00,75.9,72.8,29.95,NNE,25,0.0,0.0,90,0.00,CLR,,0.00,WeatherDisplay:10.37,2013-08-23 10:22:00,
2013-08-23 05:27:00,75.5,72.0,29.95,NNE,25,0.0,0.0,89,0.00,CLR,,0.00,WeatherDisplay:10.37,2013-08-23 10:27:00,
2013-08-23 05:32:00,75.0,71.2,29.95,NNE,25,0.0,0.0,88,0.00,CLR,,0.00,WeatherDisplay:10.37,2013-08-23 10:32:00,
2013-08-23 05:37:00,74.5,71.0,29.95,NNE,25,0.0,0.0,89,0.00,CLR,,0.00,WeatherDisplay:10.37,2013-08-23 10:37:00,
2013-08-23 05:42:00,74.2,70.7,29.95,NNE,25,0.0,0.0,89,0.00,CLR,,0.00,WeatherDisplay:10.37,2013-08-23 10:42:00,
2013-08-23 05:47:00,74.0,70.9,29.95,NNE,25,0.0,0.0,90,0.00,CLR,,0.00,WeatherDisplay:10.37,2013-08-23 10:47:00,
2013-08-23 05:52:00,74.3,71.5,29.94,NNE,25,0.0,0.0,91,0.00,CLR,,0.00,WeatherDisplay:10.37,2013-08-23 10:52:00,
2013-08-23 05:57:00,74.2,71.4,29.94,NNE,25,0.0,0.0,91,0.00,CLR,,0.00,WeatherDisplay:10.37,2013-08-23 10:57:00,
2013-08-23 06:02:00,74.2,71.7,29.94,NNE,25,0.0,0.0,92,0.00,CLR,,0.00,WeatherDisplay:10.37,2013-08-23 11:02:00,
2013-08-23 06:07:00,74.2,71.7,29.95,NNE,25,0.0,0.0,92,0.00,CLR,,0.00,WeatherDisplay:10.37,2013-08-23 11:07:00,
2013-08-23 06:12:00,74.0,71.5,29.95,NNE,25,0.0,0.0,92,0.00,CLR,,0.00,WeatherDisplay:10.37,2013-08-23 11:12:00,
2013-08-23 06:17:00,73.9,71.7,29.95,NNE,25,0.0,0.0,93,0.00,CLR,,0.00,WeatherDisplay:10.37,2013-08-23 11:17:00,
2013-08-23 06:22:00,73.8,71.6,29.95,NNE,25,0.0,0.0,93,0.00,CLR,,0.00,WeatherDisplay:10.37,2013-08-23 11:22:00,
2013-08-23 06:27:00,73.9,71.7,29.95,NNE,25,0.0,0.0,93,0.00,CLR,,0.00,WeatherDisplay:10.37,2013-08-23 11:27:00,
2013-08-23 06:32:00,74.2,72.4,29.95,NNE,25,0.0,0.0,94,0.00,CLR,,0.00,WeatherDisplay:10.37,2013-08-23 11:32:00,
2013-08-23 06:37:00,74.5,72.7,29.96,NNE,25,0.0,0.0,94,0.00,CLR,,0.00,WeatherDisplay:10.37,2013-08-23 11:37:00,
2013-08-23 06:42:00,74.6,72.8,29.96,NNE,25,0.0,0.0,94,0.00,CLR,,0.00,WeatherDisplay:10.37,2013-08-23 11:42:00,
2013-08-23 06:47:00,74.9,73.1,29.96,NNE,25,0.0,0.0,94,0.00,CLR,,0.00,WeatherDisplay:10.37,2013-08-23 11:47:00,
2013-08-23 06:52:00,75.1,73.3,29.96,NNE,25,0.0,0.0,94,0.00,CLR,,0.00,WeatherDisplay:10.37,2013-08-23 11:52:00,
2013-08-23 06:57:00,75.0,72.8,29.96,NNE,25,0.0,0.0,93,0.00,CLR,,0.00,WeatherDisplay:10.37,2013-08-23 11:57:00,
2013-08-23 07:02:00,75.0,72.8,29.96,NNE,25,0.0,0.0,93,0.00,CLR,,0.00,WeatherDisplay:10.37,2013-08-23 12:02:00,
2013-08-23 07:07:00,74.8,72.6,29.96,NNE,25,0.0,0.0,93,0.00,CLR,,0.00,WeatherDisplay:10.37,2013-08-23 12:07:00,
2013-08-23 07:12:00,74.2,71.7,29.96,NNE,27,0.0,0.0,92,0.00,CLR,,0.00,WeatherDisplay:10.37,2013-08-23 12:12:00,
2013-08-23 07:17:00,74.7,72.9,29.96,NNE,27,0.0,0.0,94,0.00,CLR,,0.00,WeatherDisplay:10.37,2013-08-23 12:17:00,
2013-08-23 07:22:00,75.1,73.3,29.96,NNE,27,0.0,0.0,94,0.00,CLR,,0.00,WeatherDisplay:10.37,2013-08-23 12:22:00,
2013-08-23 07:27:00,75.2,73.4,29.97,NNE,26,0.0,0.0,94,0.00,CLR,,0.00,WeatherDisplay:10.37,2013-08-23 12:27:00,
2013-08-23 07:32:00,75.6,73.8,29.97,NE,43,0.0,0.0,94,0.00,CLR,,0.00,WeatherDisplay:10.37,2013-08-23 12:32:00,
2013-08-23 07:37:00,75.9,73.7,29.97,NNE,32,0.0,0.0,93,0.00,CLR,,0.00,WeatherDisplay:10.37,2013-08-23 12:37:00,
2013-08-23 07:42:00,75.6,73.1,29.97,NNW,333,0.0,0.0,92,0.00,CLR,,0.00,WeatherDisplay:10.37,2013-08-23 12:42:00,
2013-08-23 07:47:00,75.5,72.7,29.97,NNW,339,0.0,0.0,91,0.00,CLR,,0.00,WeatherDisplay:10.37,2013-08-23 12:47:00,
2013-08-23 07:52:00,75.9,73.1,29.97,North,351,0.0,0.0,91,0.00,CLR,,0.00,WeatherDisplay:10.37,2013-08-23 12:52:00,
2013-08-23 07:57:00,76.4,73.6,29.97,North,6,0.0,0.0,91,0.00,CLR,,0.00,WeatherDisplay:10.37,2013-08-23 12:57:00,
2013-08-23 08:02:00,77.0,74.2,29.97,NE,53,0.0,0.0,91,0.00,CLR,,0.00,WeatherDisplay:10.37,2013-08-23 13:02:00,
2013-08-23 08:07:00,77.7,74.5,29.98,NNE,19,0.0,0.0,90,0.00,CLR,,0.00,WeatherDisplay:10.37,2013-08-23 13:07:00,
2013-08-23 08:12:00,78.3,74.8,29.98,East,84,0.0,0.0,89,0.00,CLR,,0.00,WeatherDisplay:10.37,2013-08-23 13:12:00,
2013-08-23 08:17:00,79.0,74.8,29.98,ENE,72,0.0,0.0,87,0.00,CLR,,0.00,WeatherDisplay:10.37,2013-08-23 13:17:00,
2013-08-23 08:22:00,79.4,75.2,29.98,East,88,0.0,0.0,87,0.00,CLR,,0.00,WeatherDisplay:10.37,2013-08-23 13:22:00,
2013-08-23 08:27:00,79.4,75.2,29.98,East,91,0.0,0.0,87,0.00,CLR,,0.00,WeatherDisplay:10.37,2013-08-23 13:27:00,
2013-08-23 08:32:00,79.5,75.3,29.99,ENE,75,2.3,2.3,87,0.00,CLR,,0.00,WeatherDisplay:10.37,2013-08-23 13:32:00,
2013-08-23 08:37:00,79.5,75.3,29.99,East,79,1.1,1.1,87,0.00,CLR,,0.00,WeatherDisplay:10.37,2013-08-23 13:37:00,
2013-08-23 08:42:00,79.7,75.8,29.99,ENE,57,0.0,0.0,88,0.00,CLR,,0.00,WeatherDisplay:10.37,2013-08-23 13:42:00,
2013-08-23 08:47:00,80.1,75.9,29.99,East,85,2.3,2.3,87,0.00,CLR,,0.00,WeatherDisplay:10.37,2013-08-23 13:47:00,
2013-08-23 08:52:00,80.3,76.1,29.99,ESE,120,0.0,0.0,87,0.00,CLR,,0.00,WeatherDisplay:10.37,2013-08-23 13:52:00,
2013-08-23 08:57:00,80.9,76.3,29.99,East,88,2.3,2.3,86,0.00,CLR,,0.00,WeatherDisplay:10.37,2013-08-23 13:57:00,
2013-08-23 09:02:00,81.0,76.1,29.99,ESE,105,3.5,3.5,85,0.00,CLR,,0.00,WeatherDisplay:10.37,2013-08-23 14:02:00,
2013-08-23 09:07:00,81.4,76.5,29.99,East,80,1.1,1.1,85,0.00,CLR,,0.00,WeatherDisplay:10.37,2013-08-23 14:07:00,
2013-08-23 09:12:00,81.5,75.5,29.99,East,98,3.5,3.5,82,0.00,CLR,,0.00,WeatherDisplay:10.37,2013-08-23 14:12:00,
2013-08-23 09:17:00,81.8,75.8,29.99,SE,133,3.5,3.5,82,0.00,CLR,,0.00,WeatherDisplay:10.37,2013-08-23 14:17:00,
2013-08-23 09:22:00,82.4,75.6,29.99,ESE,123,3.5,3.5,80,0.00,CLR,,0.00,WeatherDisplay:10.37,2013-08-23 14:22:00,
2013-08-23 09:27:00,82.3,75.1,29.99,East,94,2.3,2.3,79,0.00,CLR,,0.00,WeatherDisplay:10.37,2013-08-23 14:27:00,
2013-08-23 09:32:00,83.0,75.8,29.99,ESE,120,0.0,0.0,79,0.00,CLR,,0.00,WeatherDisplay:10.37,2013-08-23 14:32:00,
2013-08-23 09:37:00,83.6,75.2,29.99,SSW,194,0.0,0.0,76,0.00,CLR,,0.00,WeatherDisplay:10.37,2013-08-23 14:37:00,
2013-08-23 09:42:00,84.3,75.9,29.99,East,91,3.5,3.5,76,0.00,CLR,,0.00,WeatherDisplay:10.37,2013-08-23 14:42:00,
2013-08-23 09:47:00,83.6,75.2,29.98,SSE,166,4.0,4.0,76,0.00,CLR,,0.00,WeatherDisplay:10.37,2013-08-23 14:47:00,
2013-08-23 09:52:00,84.1,74.1,29.98,SSE,166,3.5,4.1,72,0.00,CLR,,0.00,WeatherDisplay:10.37,2013-08-23 14:52:00,
2013-08-23 09:57:00,84.8,74.8,29.98,SE,134,5.8,5.8,72,0.00,CLR,,0.00,WeatherDisplay:10.37,2013-08-23 14:57:00,
2013-08-23 10:02:00,84.6,74.6,29.98,SE,128,4.6,4.6,72,0.00,CLR,,0.00,WeatherDisplay:10.37,2013-08-23 15:02:00,
2013-08-23 10:07:00,84.7,74.7,29.98,SSE,158,2.3,2.3,72,0.00,CLR,,0.00,WeatherDisplay:10.37,2013-08-23 15:07:00,
2013-08-23 10:12:00,85.8,74.4,29.98,SSE,153,3.5,3.5,69,0.00,CLR,,0.00,WeatherDisplay:10.37,2013-08-23 15:12:00,
2013-08-23 10:17:00,85.2,73.4,29.99,ESE,118,4.6,4.6,68,0.00,CLR,,0.00,WeatherDisplay:10.37,2013-08-23 15:17:00,
2013-08-23 10:22:00,84.5,73.6,29.99,East,90,3.5,3.5,70,0.00,CLR,,0.00,WeatherDisplay:10.37,2013-08-23 15:22:00,
2013-08-23 10:27:00,84.8,74.3,29.99,SE,132,3.0,3.0,71,0.00,CLR,,0.00,WeatherDisplay:10.37,2013-08-23 15:27:00,
2013-08-23 10:32:00,84.7,73.4,29.99,ENE,68,0.0,0.0,69,0.00,CLR,,0.00,WeatherDisplay:10.37,2013-08-23 15:32:00,
2013-08-23 10:37:00,84.9,74.4,29.99,NNW,345,1.1,0.0,71,0.00,CLR,,0.00,WeatherDisplay:10.37,2013-08-23 15:37:00,
2013-08-23 10:42:00,85.5,74.2,29.99,NE,46,5.8,5.8,69,0.00,CLR,,0.00,WeatherDisplay:10.37,2013-08-23 15:42:00,
2013-08-23 10:47:00,85.2,72.6,29.99,ESE,120,6.0,6.0,66,0.00,CLR,,0.00,WeatherDisplay:10.37,2013-08-23 15:47:00,
2013-08-23 10:52:00,85.3,73.5,29.99,ENE,57,2.3,2.3,68,0.00,CLR,,0.00,WeatherDisplay:10.37,2013-08-23 15:52:00,
2013-08-23 10:57:00,86.0,73.8,29.99,East,101,4.6,4.6,67,0.00,CLR,,0.00,WeatherDisplay:10.37,2013-08-23 15:57:00,
2013-08-23 11:02:00,86.5,71.5,29.99,SE,129,0.0,1.2,61,0.00,CLR,,0.00,WeatherDisplay:10.37,2013-08-23 16:02:00,
2013-08-23 11:07:00,87.0,72.4,29.99,South,180,12.7,12.7,62,0.00,CLR,,0.00,WeatherDisplay:10.37,2013-08-23 16:07:00,
2013-08-23 11:12:00,87.0,72.4,29.99,SE,129,4.6,4.6,62,0.00,CLR,,0.00,WeatherDisplay:10.37,2013-08-23 16:12:00,
2013-08-23 11:17:00,87.2,72.1,29.99,SSE,162,5.8,5.8,61,0.00,CLR,,0.00,WeatherDisplay:10.37,2013-08-23 16:17:00,
2013-08-23 11:22:00,87.5,71.9,29.99,ESE,102,6.9,6.9,60,0.00,CLR,,0.00,WeatherDisplay:10.37,2013-08-23 16:22:00,
2013-08-23 11:27:00,87.9,72.3,29.98,East,84,6.9,6.9,60,0.00,CLR,,0.00,WeatherDisplay:10.37,2013-08-23 16:27:00,
2013-08-23 11:32:00,87.7,72.1,29.98,East,81,4.6,4.6,60,0.00,CLR,,0.00,WeatherDisplay:10.37,2013-08-23 16:32:00,
2013-08-23 11:37:00,87.7,71.1,29.98,SW,221,5.8,5.8,58,0.00,CLR,,0.00,WeatherDisplay:10.37,2013-08-23 16:37:00,
2013-08-23 11:42:00,87.9,71.3,29.98,ESE,113,5.8,5.8,58,0.00,CLR,,0.00,WeatherDisplay:10.37,2013-08-23 16:42:00,
2013-08-23 11:47:00,88.4,72.2,29.98,ESE,115,3.5,3.5,59,0.00,CLR,,0.00,WeatherDisplay:10.37,2013-08-23 16:47:00,
2013-08-23 11:52:00,89.4,71.6,29.98,ESE,116,6.9,6.9,56,0.00,CLR,,0.00,WeatherDisplay:10.37,2013-08-23 16:52:00,
2013-08-23 11:57:00,88.9,71.2,29.98,ENE,60,10.4,10.4,56,0.00,CLR,,0.00,WeatherDisplay:10.37,2013-08-23 16:57:00,
2013-08-23 12:02:00,88.6,71.4,29.98,NE,54,11.5,11.5,57,0.00,CLR,,0.00,WeatherDisplay:10.37,2013-08-23 17:02:00,
2013-08-23 12:07:00,87.9,70.8,29.98,ENE,72,5.0,5.0,57,0.00,CLR,,0.00,WeatherDisplay:10.37,2013-08-23 17:07:00,
2013-08-23 12:12:00,88.4,71.2,29.98,SSE,166,3.5,3.5,57,0.00,CLR,,0.00,WeatherDisplay:10.37,2013-08-23 17:12:00,
2013-08-23 12:17:00,89.2,72.0,29.98,SE,138,11.5,11.5,57,0.00,CLR,,0.00,WeatherDisplay:10.37,2013-08-23 17:17:00,
2013-08-23 12:22:00,89.7,71.9,29.97,ENE,77,10.4,10.4,56,0.00,CLR,,0.00,WeatherDisplay:10.37,2013-08-23 17:22:00,
2013-08-23 12:27:00,89.9,72.1,29.97,NE,46,11.5,11.5,56,0.00,CLR,,0.00,WeatherDisplay:10.37,2013-08-23 17:27:00,
2013-08-23 12:32:00,89.2,72.0,29.97,NE,41,5.8,5.8,57,0.00,CLR,,0.00,WeatherDisplay:10.37,2013-08-23 17:32:00,
2013-08-23 12:37:00,89.2,72.0,29.97,East,84,9.2,9.2,57,0.00,CLR,,0.00,WeatherDisplay:10.37,2013-08-23 17:37:00,
2013-08-23 12:42:00,89.2,72.5,29.97,East,92,3.5,3.5,58,0.00,CLR,,0.00,WeatherDisplay:10.37,2013-08-23 17:42:00,
2013-08-23 12:47:00,89.4,71.6,29.97,East,94,8.1,8.1,56,0.00,CLR,,0.00,WeatherDisplay:10.37,2013-08-23 17:47:00,
2013-08-23 12:52:00,90.0,71.7,29.96,East,92,12.7,12.7,55,0.00,CLR,,0.00,WeatherDisplay:10.37,2013-08-23 17:52:00,
2013-08-23 12:57:00,90.2,71.8,29.96,ENE,75,11.5,11.5,55,0.00,CLR,,0.00,WeatherDisplay:10.37,2013-08-23 17:57:00,
2013-08-23 13:02:00,90.2,71.3,29.96,ESE,103,6.9,6.9,54,0.00,CLR,,0.00,WeatherDisplay:10.37,2013-08-23 18:02:00,
2013-08-23 13:07:00,91.0,71.5,29.96,ESE,109,11.5,11.5,53,0.00,CLR,,0.00,WeatherDisplay:10.37,2013-08-23 18:07:00,
2013-08-23 13:12:00,90.4,70.9,29.95,SE,127,6.9,6.9,53,0.00,CLR,,0.00,WeatherDisplay:10.37,2013-08-23 18:12:00,
2013-08-23 13:17:00,91.3,71.8,29.95,SE,145,4.6,4.6,53,0.00,CLR,,0.00,WeatherDisplay:10.37,2013-08-23 18:17:00,
2013-08-23 13:22:00,91.6,70.9,29.95,North,9,4.6,4.6,51,0.00,CLR,,0.00,WeatherDisplay:10.37,2013-08-23 18:22:00,
2013-08-23 13:27:00,91.7,70.4,29.95,SE,143,6.9,6.9,50,0.00,CLR,,0.00,WeatherDisplay:10.37,2013-08-23 18:27:00,
2013-08-23 13:32:00,91.4,70.1,29.95,NE,46,5.8,5.8,50,0.00,CLR,,0.00,WeatherDisplay:10.37,2013-08-23 18:32:00,
2013-08-23 13:37:00,91.8,70.5,29.95,ENE,64,8.1,8.1,50,0.00,CLR,,0.00,WeatherDisplay:10.37,2013-08-23 18:37:00,
2013-08-23 13:42:00,92.0,70.7,29.95,ESE,117,4.6,4.6,50,0.00,CLR,,0.00,WeatherDisplay:10.37,2013-08-23 18:42:00,
2013-08-23 13:47:00,92.6,70.6,29.94,South,179,11.5,11.5,49,0.00,CLR,,0.00,WeatherDisplay:10.37,2013-08-23 18:47:00,
2013-08-23 13:53:00,92.4,70.5,29.94,NNE,22,11.5,11.5,49,0.00,CLR,,0.00,WeatherDisplay:10.37,2013-08-23 18:53:00,
2013-08-23 13:58:00,92.7,70.7,29.94,East,82,3.5,3.5,49,0.00,CLR,,0.00,WeatherDisplay:10.37,2013-08-23 18:58:00,
2013-08-23 14:03:00,92.5,70.6,29.94,ENE,63,5.8,5.8,49,0.00,CLR,,0.00,WeatherDisplay:10.37,2013-08-23 19:03:00,
2013-08-23 14:08:00,92.2,70.3,29.94,SE,125,4.6,4.6,49,0.00,CLR,,0.00,WeatherDisplay:10.37,2013-08-23 19:08:00,
2013-08-23 14:13:00,92.3,70.4,29.93,ESE,122,8.1,8.1,49,0.00,CLR,,0.00,WeatherDisplay:10.37,2013-08-23 19:13:00,
2013-08-23 14:18:00,93.1,70.5,29.93,East,88,10.4,10.4,48,0.00,CLR,,0.00,WeatherDisplay:10.37,2013-08-23 19:18:00,
2013-08-23 14:23:00,93.3,69.4,29.93,ESE,117,5.8,5.8,46,0.00,CLR,,0.00,WeatherDisplay:10.37,2013-08-23 19:23:00,
2013-08-23 14:28:00,94.1,69.5,29.93,SE,141,6.9,6.9,45,0.00,CLR,,0.00,WeatherDisplay:10.37,2013-08-23 19:28:00,
2013-08-23 14:33:00,94.3,70.3,29.92,NE,48,7.0,7.0,46,0.00,CLR,,0.00,WeatherDisplay:10.37,2013-08-23 19:33:00,
2013-08-23 14:38:00,93.8,69.9,29.92,East,99,1.1,0.0,46,0.00,CLR,,0.00,WeatherDisplay:10.37,2013-08-23 19:38:00,
2013-08-23 14:43:00,93.7,69.8,29.92,NE,41,11.5,11.5,46,0.00,CLR,,0.00,WeatherDisplay:10.37,2013-08-23 19:43:00,
2013-08-23 14:48:00,94.4,69.1,29.91,East,84,11.5,11.5,44,0.00,CLR,,0.00,WeatherDisplay:10.37,2013-08-23 19:48:00,
2013-08-23 14:53:00,93.7,69.2,29.91,SE,131,9.2,9.2,45,0.00,CLR,,0.00,WeatherDisplay:10.37,2013-08-23 19:53:00,
2013-08-23 14:58:00,93.4,68.9,29.91,ENE,61,6.9,6.9,45,0.00,CLR,,0.00,WeatherDisplay:10.37,2013-08-23 19:58:00,
2013-08-23 15:03:00,93.7,69.2,29.91,East,85,11.5,11.5,45,0.00,CLR,,0.00,WeatherDisplay:10.37,2013-08-23 20:03:00,
2013-08-23 15:08:00,93.2,68.7,29.91,ENE,62,5.8,5.8,45,0.00,CLR,,0.00,WeatherDisplay:10.37,2013-08-23 20:08:00,
2013-08-23 15:13:00,93.5,69.0,29.90,East,93,10.4,10.4,45,0.00,CLR,,0.00,WeatherDisplay:10.37,2013-08-23 20:13:00,
2013-08-23 15:18:00,93.9,68.7,29.90,SE,130,8.1,8.1,44,0.00,CLR,,0.00,WeatherDisplay:10.37,2013-08-23 20:18:00,
2013-08-23 15:23:00,93.7,69.2,29.90,East,86,11.5,11.5,45,0.00,CLR,,0.00,WeatherDisplay:10.37,2013-08-23 20:23:00,
2013-08-23 15:28:00,94.1,69.5,29.90,East,84,5.8,5.8,45,0.00,CLR,,0.00,WeatherDisplay:10.37,2013-08-23 20:28:00,
2013-08-23 15:33:00,94.7,68.7,29.89,SE,125,3.5,3.5,43,0.00,CLR,,0.00,WeatherDisplay:10.37,2013-08-23 20:33:00,
2013-08-23 15:38:00,95.1,69.1,29.89,East,89,9.2,9.2,43,0.00,CLR,,0.00,WeatherDisplay:10.37,2013-08-23 20:38:00,
2013-08-23 15:43:00,95.1,68.4,29.89,South,169,9.2,9.2,42,0.00,CLR,,0.00,WeatherDisplay:10.37,2013-08-23 20:43:00,
2013-08-23 15:48:00,96.2,68.7,29.88,SE,140,8.1,8.1,41,0.00,CLR,,0.00,WeatherDisplay:10.37,2013-08-23 20:48:00,
2013-08-23 15:53:00,96.4,68.1,29.88,East,86,5.8,5.8,40,0.00,CLR,,0.00,WeatherDisplay:10.37,2013-08-23 20:53:00,
2013-08-23 15:58:00,96.2,68.0,29.88,SE,137,10.4,10.4,40,0.00,CLR,,0.00,WeatherDisplay:10.37,2013-08-23 20:58:00,
2013-08-23 16:03:00,96.3,68.8,29.88,SE,136,4.6,4.6,41,0.00,CLR,,0.00,WeatherDisplay:10.37,2013-08-23 21:03:00,
2013-08-23 16:08:00,96.5,68.2,29.87,ENE,72,4.6,4.6,40,0.00,CLR,,0.00,WeatherDisplay:10.37,2013-08-23 21:08:00,
2013-08-23 16:13:00,95.7,67.5,29.87,SSE,156,11.5,11.5,40,0.00,CLR,,0.00,WeatherDisplay:10.37,2013-08-23 21:13:00,
2013-08-23 16:18:00,95.0,67.6,29.87,SE,142,3.0,3.0,41,0.00,CLR,,0.00,WeatherDisplay:10.37,2013-08-23 21:18:00,
2013-08-23 16:23:00,94.9,67.5,29.87,SE,138,5.8,5.8,41,0.00,CLR,,0.00,WeatherDisplay:10.37,2013-08-23 21:23:00,
2013-08-23 16:28:00,95.5,68.1,29.87,SSE,162,8.1,8.1,41,0.00,CLR,,0.00,WeatherDisplay:10.37,2013-08-23 21:28:00,
2013-08-23 16:33:00,95.6,67.4,29.86,SE,130,6.9,6.9,40,0.00,CLR,,0.00,WeatherDisplay:10.37,2013-08-23 21:33:00,
2013-08-23 16:38:00,95.8,67.6,29.86,ESE,122,11.5,11.5,40,0.00,CLR,,0.00,WeatherDisplay:10.37,2013-08-23 21:38:00,
2013-08-23 16:43:00,95.8,66.9,29.86,East,92,10.4,10.4,39,0.00,CLR,,0.00,WeatherDisplay:10.37,2013-08-23 21:43:00,
2013-08-23 16:48:00,95.5,66.6,29.86,ENE,75,9.2,9.2,39,0.00,CLR,,0.00,WeatherDisplay:10.37,2013-08-23 21:48:00,
2013-08-23 16:53:00,95.8,66.1,29.86,SE,125,3.5,3.5,38,0.00,CLR,,0.00,WeatherDisplay:10.37,2013-08-23 21:53:00,
2013-08-23 16:58:00,95.8,66.1,29.86,East,91,11.5,11.5,38,0.00,CLR,,0.00,WeatherDisplay:10.37,2013-08-23 21:58:00,
2013-08-23 17:03:00,95.8,66.1,29.86,ENE,73,4.6,4.6,38,0.00,CLR,,0.00,WeatherDisplay:10.37,2013-08-23 22:03:00,
2013-08-23 17:08:00,95.8,66.9,29.86,SE,124,13.8,13.8,39,0.00,CLR,,0.00,WeatherDisplay:10.37,2013-08-23 22:08:00,
2013-08-23 17:13:00,96.0,66.3,29.85,SSE,150,5.8,5.8,38,0.00,CLR,,0.00,WeatherDisplay:10.37,2013-08-23 22:13:00,
2013-08-23 17:18:00,95.9,66.2,29.85,ESE,104,11.5,11.5,38,0.00,CLR,,0.00,WeatherDisplay:10.37,2013-08-23 22:18:00,
2013-08-23 17:23:00,96.0,66.3,29.85,East,87,8.1,8.1,38,0.00,CLR,,0.00,WeatherDisplay:10.37,2013-08-23 22:23:00,
2013-08-23 17:28:00,96.3,65.8,29.85,East,101,12.7,12.7,37,0.00,CLR,,0.00,WeatherDisplay:10.37,2013-08-23 22:28:00,
2013-08-23 17:33:00,95.9,66.2,29.85,East,101,16.1,16.1,38,0.00,CLR,,0.00,WeatherDisplay:10.37,2013-08-23 22:33:00,
2013-08-23 17:38:00,95.9,66.2,29.85,East,101,12.7,12.7,38,0.00,CLR,,0.00,WeatherDisplay:10.37,2013-08-23 22:38:00,
2013-08-23 17:43:00,96.5,66.7,29.85,East,84,16.1,16.1,38,0.00,CLR,,0.00,WeatherDisplay:10.37,2013-08-23 22:43:00,
2013-08-23 17:48:00,96.1,67.1,29.85,East,86,8.1,8.1,39,0.00,CLR,,0.00,WeatherDisplay:10.37,2013-08-23 22:48:00,
2013-08-23 17:53:00,96.2,67.2,29.85,East,80,11.5,11.5,39,0.00,CLR,,0.00,WeatherDisplay:10.37,2013-08-23 22:53:00,
2013-08-23 17:58:00,95.7,66.8,29.85,SE,136,8.1,8.1,39,0.00,CLR,,0.00,WeatherDisplay:10.37,2013-08-23 22:58:00,
2013-08-23 18:03:00,96.0,67.0,29.85,East,79,10.4,10.4,39,0.00,CLR,,0.00,WeatherDisplay:10.37,2013-08-23 23:03:00,
2013-08-23 18:08:00,96.2,67.2,29.85,SE,126,8.1,8.1,39,0.00,CLR,,0.00,WeatherDisplay:10.37,2013-08-23 23:08:00,
2013-08-23 18:13:00,96.2,67.2,29.85,ENE,75,11.5,11.5,39,0.00,CLR,,0.00,WeatherDisplay:10.37,2013-08-23 23:13:00,
2013-08-23 18:18:00,95.6,67.4,29.85,East,81,10.4,10.4,40,0.00,CLR,,0.00,WeatherDisplay:10.37,2013-08-23 23:18:00,
2013-08-23 18:23:00,95.6,67.4,29.85,ENE,63,5.8,5.8,40,0.00,CLR,,0.00,WeatherDisplay:10.37,2013-08-23 23:23:00,
2013-08-23 18:28:00,95.8,67.6,29.84,East,79,6.9,6.9,40,0.00,CLR,,0.00,WeatherDisplay:10.37,2013-08-23 23:28:00,
2013-08-23 18:33:00,95.9,67.7,29.84,ENE,68,4.6,4.6,40,0.00,CLR,,0.00,WeatherDisplay:10.37,2013-08-23 23:33:00,
2013-08-23 18:38:00,95.9,67.7,29.84,SE,124,13.8,13.8,40,0.00,CLR,,0.00,WeatherDisplay:10.37,2013-08-23 23:38:00,
2013-08-23 18:43:00,95.8,67.6,29.84,East,93,8.1,8.1,40,0.00,CLR,,0.00,WeatherDisplay:10.37,2013-08-23 23:43:00,
2013-08-23 18:48:00,95.6,67.4,29.84,East,81,5.8,5.8,40,0.00,CLR,,0.00,WeatherDisplay:10.37,2013-08-23 23:48:00,
2013-08-23 18:53:00,95.7,66.8,29.84,ESE,117,6.9,6.9,39,0.00,CLR,,0.00,WeatherDisplay:10.37,2013-08-23 23:53:00,
2013-08-23 18:58:00,95.4,66.5,29.84,SE,126,9.2,9.2,39,0.00,CLR,,0.00,WeatherDisplay:10.37,2013-08-23 23:58:00,
2013-08-23 19:03:00,95.1,67.0,29.84,East,81,9.2,9.2,40,0.00,CLR,,0.00,WeatherDisplay:10.37,2013-08-24 00:03:00,
2013-08-23 19:08:00,94.7,67.3,29.84,ENE,78,8.1,8.1,41,0.00,CLR,,0.00,WeatherDisplay:10.37,2013-08-24 00:08:00,
2013-08-23 19:13:00,94.5,67.2,29.85,ESE,112,15.0,15.0,41,0.00,CLR,,0.00,WeatherDisplay:10.37,2013-08-24 00:13:00,
2013-08-23 19:18:00,94.6,66.5,29.85,SE,125,9.2,9.2,40,0.00,CLR,,0.00,WeatherDisplay:10.37,2013-08-24 00:18:00,
2013-08-23 19:23:00,94.5,66.4,29.85,SE,131,6.9,6.9,40,0.00,CLR,,0.00,WeatherDisplay:10.37,2013-08-24 00:23:00,
2013-08-23 19:28:00,94.4,66.4,29.85,ENE,75,6.9,6.9,40,0.00,CLR,,0.00,WeatherDisplay:10.37,2013-08-24 00:28:00,
2013-08-23 19:33:00,94.3,66.3,29.85,East,98,5.8,5.8,40,0.00,CLR,,0.00,WeatherDisplay:10.37,2013-08-24 00:33:00,
2013-08-23 19:38:00,94.1,66.1,29.86,ESE,115,8.1,8.1,40,0.00,CLR,,0.00,WeatherDisplay:10.37,2013-08-24 00:38:00,
2013-08-23 19:43:00,93.8,66.5,29.86,East,88,5.8,5.8,41,0.00,CLR,,0.00,WeatherDisplay:10.37,2013-08-24 00:43:00,
2013-08-23 19:48:00,93.5,66.3,29.86,ESE,117,6.9,6.9,41,0.00,CLR,,0.00,WeatherDisplay:10.37,2013-08-24 00:48:00,
2013-08-23 19:53:00,93.2,66.7,29.86,ENE,77,3.5,3.5,42,0.00,CLR,,0.00,WeatherDisplay:10.37,2013-08-24 00:53:00,
2013-08-23 19:58:00,92.7,66.9,29.87,East,92,0.0,0.0,43,0.00,CLR,,0.00,WeatherDisplay:10.37,2013-08-24 00:58:00,
2013-08-23 20:03:00,92.1,67.1,29.87,East,96,1.1,1.1,44,0.00,CLR,,0.00,WeatherDisplay:10.37,2013-08-24 01:03:00,
2013-08-23 20:08:00,91.7,66.7,29.87,East,81,2.3,2.3,44,0.00,CLR,,0.00,WeatherDisplay:10.37,2013-08-24 01:08:00,
2013-08-23 20:13:00,91.4,67.1,29.88,SE,141,6.9,6.9,45,0.00,CLR,,0.00,WeatherDisplay:10.37,2013-08-24 01:13:00,
2013-08-23 20:18:00,91.0,68.6,29.87,ESE,121,11.5,11.5,48,0.00,CLR,,0.00,WeatherDisplay:10.37,2013-08-24 01:18:00,
2013-08-23 20:23:00,90.6,68.8,29.88,ESE,111,9.2,9.2,49,0.00,CLR,,0.00,WeatherDisplay:10.37,2013-08-24 01:23:00,
2013-08-23 20:28:00,90.3,69.1,29.88,East,92,8.1,8.1,50,0.00,CLR,,0.00,WeatherDisplay:10.37,2013-08-24 01:28:00,
2013-08-23 20:33:00,90.0,69.4,29.88,SSE,159,6.9,6.9,51,0.00,CLR,,0.00,WeatherDisplay:10.37,2013-08-24 01:33:00,
2013-08-23 20:38:00,89.7,69.2,29.88,SE,127,10.4,10.4,51,0.00,CLR,,0.00,WeatherDisplay:10.37,2013-08-24 01:38:00,
2013-08-23 20:43:00,89.5,69.5,29.88,SE,134,12.7,12.7,52,0.00,CLR,,0.00,WeatherDisplay:10.37,2013-08-24 01:43:00,
2013-08-23 20:48:00,89.2,69.8,29.88,SE,127,8.1,8.1,53,0.00,CLR,,0.00,WeatherDisplay:10.37,2013-08-24 01:48:00,
2013-08-23 20:53:00,89.0,69.6,29.89,ESE,117,9.2,9.2,53,0.00,CLR,,0.00,WeatherDisplay:10.37,2013-08-24 01:53:00,
2013-08-23 20:58:00,88.8,70.0,29.89,SE,132,8.1,8.1,54,0.00,CLR,,0.00,WeatherDisplay:10.37,2013-08-24 01:58:00,
2013-08-23 21:03:00,88.6,69.8,29.89,SE,133,5.8,5.8,54,0.00,CLR,,0.00,WeatherDisplay:10.37,2013-08-24 02:03:00,
2013-08-23 21:08:00,88.4,69.6,29.89,SE,133,8.1,8.1,54,0.00,CLR,,0.00,WeatherDisplay:10.37,2013-08-24 02:08:00,
2013-08-23 21:13:00,88.3,70.1,29.89,SE,135,4.6,4.6,55,0.00,CLR,,0.00,WeatherDisplay:10.37,2013-08-24 02:13:00,
2013-08-23 21:18:00,88.1,69.9,29.89,SE,134,9.2,9.2,55,0.00,CLR,,0.00,WeatherDisplay:10.37,2013-08-24 02:18:00,
2013-08-23 21:23:00,88.0,69.8,29.89,SE,141,8.1,8.1,55,0.00,CLR,,0.00,WeatherDisplay:10.37,2013-08-24 02:23:00,
2013-08-23 21:28:00,87.8,70.1,29.89,SE,134,6.9,6.9,56,0.00,CLR,,0.00,WeatherDisplay:10.37,2013-08-24 02:28:00,
2013-08-23 21:33:00,87.7,70.1,29.90,SSE,156,4.6,4.6,56,0.00,CLR,,0.00,WeatherDisplay:10.37,2013-08-24 02:33:00,
2013-08-23 21:38:00,87.5,69.9,29.90,SE,142,4.6,4.6,56,0.00,CLR,,0.00,WeatherDisplay:10.37,2013-08-24 02:38:00,
2013-08-23 21:43:00,87.3,69.7,29.90,SE,135,6.9,6.9,56,0.00,CLR,,0.00,WeatherDisplay:10.37,2013-08-24 02:43:00,
2013-08-23 21:48:00,87.2,70.1,29.91,ESE,112,4.6,4.6,57,0.00,CLR,,0.00,WeatherDisplay:10.37,2013-08-24 02:48:00,
2013-08-23 21:53:00,87.0,69.9,29.91,SSE,153,6.0,6.0,57,0.00,CLR,,0.00,WeatherDisplay:10.37,2013-08-24 02:53:00,
2013-08-23 21:58:00,86.9,70.3,29.91,ESE,118,5.8,5.8,58,0.00,CLR,,0.00,WeatherDisplay:10.37,2013-08-24 02:58:00,
2013-08-23 22:03:00,86.7,70.2,29.91,SSE,159,4.6,4.6,58,0.00,CLR,,0.00,WeatherDisplay:10.37,2013-08-24 03:03:00,
2013-08-23 22:08:00,86.5,70.0,29.91,SE,133,5.8,5.8,58,0.00,CLR,,0.00,WeatherDisplay:10.37,2013-08-24 03:08:00,
2013-08-23 22:13:00,86.4,70.4,29.91,SE,134,6.9,6.9,59,0.00,CLR,,0.00,WeatherDisplay:10.37,2013-08-24 03:13:00,
2013-08-23 22:18:00,86.3,70.3,29.92,SE,132,4.0,4.0,59,0.00,CLR,,0.00,WeatherDisplay:10.37,2013-08-24 03:18:00,
2013-08-23 22:23:00,86.1,70.6,29.92,SE,128,5.8,5.8,60,0.00,CLR,,0.00,WeatherDisplay:10.37,2013-08-24 03:23:00,
2013-08-23 22:28:00,85.9,70.9,29.92,ESE,120,6.9,6.9,61,0.00,CLR,,0.00,WeatherDisplay:10.37,2013-08-24 03:28:00,
2013-08-23 22:33:00,85.9,70.9,29.92,SE,132,4.6,4.6,61,0.00,CLR,,0.00,WeatherDisplay:10.37,2013-08-24 03:33:00,
2013-08-23 22:38:00,85.8,70.8,29.92,SE,133,11.5,11.5,61,0.00,CLR,,0.00,WeatherDisplay:10.37,2013-08-24 03:38:00,
2013-08-23 22:43:00,85.7,70.7,29.92,SE,142,8.1,8.1,61,0.00,CLR,,0.00,WeatherDisplay:10.37,2013-08-24 03:43:00,
2013-08-23 22:48:00,85.6,71.1,29.92,SE,146,9.2,9.2,62,0.00,CLR,,0.00,WeatherDisplay:10.37,2013-08-24 03:48:00,
2013-08-23 22:53:00,85.4,70.9,29.92,South,172,6.9,6.9,62,0.00,CLR,,0.00,WeatherDisplay:10.37,2013-08-24 03:53:00,
2013-08-23 22:58:00,85.4,70.9,29.92,South,176,5.0,5.0,62,0.00,CLR,,0.00,WeatherDisplay:10.37,2013-08-24 03:58:00,
2013-08-23 23:01:00,85.3,70.8,29.92,SSE,156,5.8,5.8,62,0.00,CLR,,0.00,WeatherDisplay:10.37,2013-08-24 04:01:00,
2013-08-23 23:06:00,85.0,71.0,29.92,SSE,153,6.0,6.0,63,0.00,CLR,,0.00,WeatherDisplay:10.37,2013-08-24 04:06:00,
2013-08-23 23:11:00,84.9,71.4,29.92,SSE,149,6.9,6.9,64,0.00,CLR,,0.00,WeatherDisplay:10.37,2013-08-24 04:11:00,
2013-08-23 23:16:00,84.8,71.3,29.92,SSE,154,5.8,5.8,64,0.00,CLR,,0.00,WeatherDisplay:10.37,2013-08-24 04:16:00,
2013-08-23 23:21:00,84.6,71.1,29.92,SE,143,5.8,5.8,64,0.00,CLR,,0.00,WeatherDisplay:10.37,2013-08-24 04:21:00,
2013-08-23 23:26:00,84.4,71.3,29.92,SE,146,5.8,5.8,65,0.00,CLR,,0.00,WeatherDisplay:10.37,2013-08-24 04:26:00,
2013-08-23 23:31:00,84.1,71.1,29.92,SSE,165,4.6,4.6,65,0.00,CLR,,0.00,WeatherDisplay:10.37,2013-08-24 04:31:00,
2013-08-23 23:36:00,83.9,71.3,29.92,SSE,168,5.0,5.0,66,0.00,CLR,,0.00,WeatherDisplay:10.37,2013-08-24 04:36:00,
2013-08-23 23:41:00,83.7,71.6,29.92,SSE,166,5.8,5.8,67,0.00,CLR,,0.00,WeatherDisplay:10.37,2013-08-24 04:41:00,
2013-08-23 23:46:00,83.6,71.5,29.92,SSE,166,5.8,5.8,67,0.00,CLR,,0.00,WeatherDisplay:10.37,2013-08-24 04:46:00,
2013-08-23 23:51:00,83.4,71.7,29.92,South,169,4.6,4.6,68,0.00,CLR,,0.00,WeatherDisplay:10.37,2013-08-24 04:51:00,
2013-08-23 23:56:00,83.2,72.0,29.92,SSW,201,8.1,8.1,69,0.00,CLR,,0.00,WeatherDisplay:10.37,2013-08-24 04:56:00,